Satellite: NOAA-14
Catalog number: 23455
Epoch time: 10133.32246038
Element set: 53
Inclination: 098.8782 deg
RA of node: 214.3060 deg
Eccentricity: 0.0009232
Arg of perigee: 340.5536 deg
Mean anomaly: 019.5296 deg
Mean motion: 14.13785745 rev/day
Decay rate: 7.0e-08 rev/day^2
Epoch rev: 79257
Checksum: 294
Satellite: NOAA-15
Catalog number: 25338
Epoch time: 10133.18253747
Element set: 373
Inclination: 098.6160 deg
RA of node: 120.7391 deg
Eccentricity: 0.0010716
Arg of perigee: 171.1989 deg
Mean anomaly: 188.9363 deg
Mean motion: 14.24824740 rev/day
Decay rate: 1.9e-07 rev/day^2
Epoch rev: 62376
Checksum: 308
Satellite: RESURS
Catalog number: 25394
Epoch time: 10132.65833219
Element set: 0503
Inclination: 098.3067 deg
RA of node: 152.6696 deg
Eccentricity: 0.0001421
Arg of perigee: 009.5125 deg
Mean anomaly: 350.6080 deg
Mean motion: 14.24200566 rev/day
Decay rate: -1.0e-08 rev/day^2
Epoch rev: 61529
Checksum: 261
Satellite: FENGYUN1
Catalog number: 25730
Epoch time: 10133.63221950
Element set: 41
Inclination: 098.7853 deg
RA of node: 099.4882 deg
Eccentricity: 0.0024602
Arg of perigee: 008.6982 deg
Mean anomaly: 351.4601 deg
Mean motion: 14.08223216 rev/day
Decay rate: -2.11e-06 rev/day^2
Epoch rev: 56682
Checksum: 276
Satellite: OKEAN-0
Catalog number: 25860
Epoch time: 10132.76849906
Element set: 990
Inclination: 097.8292 deg
RA of node: 106.6763 deg
Eccentricity: 0.0001043
Arg of perigee: 108.8930 deg
Mean anomaly: 251.2387 deg
Mean motion: 14.73638481 rev/day
Decay rate: 9.2e-07 rev/day^2
Epoch rev: 58168
Checksum: 321
Satellite: NOAA-16
Catalog number: 26536
Epoch time: 10133.16427618
Element set: 850
Inclination: 099.1711 deg
RA of node: 149.8058 deg
Eccentricity: 0.0011426
Arg of perigee: 077.4257 deg
Mean anomaly: 282.8212 deg
Mean motion: 14.12559366 rev/day
Decay rate: 3.54e-06 rev/day^2
Epoch rev: 49688
Checksum: 318
Satellite: NOAA-17
Catalog number: 27453
Epoch time: 10133.42980160
Element set: 854
Inclination: 098.4336 deg
RA of node: 185.2677 deg
Eccentricity: 0.0010851
Arg of perigee: 236.3000 deg
Mean anomaly: 123.7141 deg
Mean motion: 14.24156829 rev/day
Decay rate: 4.3e-07 rev/day^2
Epoch rev: 40975
Checksum: 286
Satellite: NOAA-18
Catalog number: 28654
Epoch time: 10133.42094271
Element set: 338
Inclination: 098.9475 deg
RA of node: 079.7884 deg
Eccentricity: 0.0014818
Arg of perigee: 148.1756 deg
Mean anomaly: 212.0313 deg
Mean motion: 14.11353388 rev/day
Decay rate: -1.8e-07 rev/day^2
Epoch rev: 25653
Checksum: 315
Satellite: NOAA-19
Catalog number: 33591
Epoch time: 10133.47230597
Element set: 536
Inclination: 098.7864 deg
RA of node: 076.3341 deg
Eccentricity: 0.0014711
Arg of perigee: 031.2647 deg
Mean anomaly: 328.9399 deg
Mean motion: 14.11051711 rev/day
Decay rate: 2.52e-06 rev/day^2
Epoch rev: 6501
Checksum: 289
/EX
SB KEPS @ AMSAT $ORB10133.M
Orbital Elements 10133.MISC
HR AMSAT ORBITAL ELEMENTS FOR MANNED AND MISCELLANEOUS SATELLITES
FROM WA5QGD FORT WORTH,TX May 13, 2010
Send Subscribe/unsubscribe to KEPS at http://www.amsat.org/mailman/listinfo/keps
BID: ORB10133.M
TO ALL RADIO AMATEURS BT
Satellite: HUBBLE
Catalog number: 20580
Epoch time: 10133.13907466
Element set: 564
Inclination: 028.4674 deg
RA of node: 108.6573 deg
Eccentricity: 0.0003720
Arg of perigee: 187.3225 deg
Mean anomaly: 172.7302 deg
Mean motion: 15.00970283 rev/day
Decay rate: 4.59e-06 rev/day^2
Epoch rev: 89948
Checksum: 297
Satellite: ISS
Catalog number: 25544
Epoch time: 10134.04366898
Element set: 147
Inclination: 051.6469 deg
RA of node: 045.8067 deg
Eccentricity: 0.0009642
Arg of perigee: 314.0466 deg
Mean anomaly: 220.6655 deg
Mean motion: 15.73972181 rev/day
Decay rate: 2.2548e-04 rev/day^2
Epoch rev: 65809
Checksum: 317
Satellite: CO-58
Catalog number: 28895
Epoch time: 10132.68395237
Element set: 581
Inclination: 098.0220 deg
RA of node: 018.3284 deg
Eccentricity: 0.0018710
Arg of perigee: 040.2222 deg
Mean anomaly: 320.0356 deg
Mean motion: 14.59888192 rev/day
Decay rate: 1.14e-06 rev/day^2
Epoch rev: 24180
Checksum: 290
Satellite: FALCON
Catalog number: 30776
Epoch time: 10133.68776137
Element set: 826
Inclination: 035.4340 deg
RA of node: 253.7438 deg
Eccentricity: 0.0001841
Arg of perigee: 283.6586 deg
Mean anomaly: 076.3923 deg
Mean motion: 15.03652283 rev/day
Decay rate: 8.43e-06 rev/day^2
Epoch rev: 17486
Checksum: 310
Satellite: MAST
Catalog number: 31126
Epoch time: 10132.63362061
Element set: 863
Inclination: 097.9395 deg
RA of node: 176.4771 deg
Eccentricity: 0.0094503
Arg of perigee: 337.4000 deg
Mean anomaly: 022.3046 deg
Mean motion: 14.53583927 rev/day
Decay rate: 8.2e-07 rev/day^2
Epoch rev: 16289
Checksum: 287
Satellite: CAPE1
Catalog number: 31130
Epoch time: 10132.58195457
Element set: 0885
Inclination: 097.9442 deg
RA of node: 173.9086 deg
Eccentricity: 0.0101876
Arg of perigee: 345.5314 deg
Mean anomaly: 014.2954 deg
Mean motion: 14.52174825 rev/day
Decay rate: 2.05e-06 rev/day^2
Epoch rev: 16249
Checksum: 300
Satellite: COMPASS
Catalog number: 32787
Epoch time: 10133.66432633
Element set: 670
Inclination: 097.8961 deg
RA of node: 198.8920 deg
Eccentricity: 0.0016733
Arg of perigee: 040.5377 deg
Mean anomaly: 319.7077 deg
Mean motion: 14.81859607 rev/day
Decay rate: 2.12e-06 rev/day^2
Epoch rev: 11038
Checksum: 314
Satellite: AAUSAT2
Catalog number: 32788
Epoch time: 10132.72545899
Element set: 0664
Inclination: 097.8962 deg
RA of node: 198.0857 deg
Eccentricity: 0.0016436
Arg of perigee: 045.1769 deg
Mean anomaly: 315.0755 deg
Mean motion: 14.81999552 rev/day
Decay rate: -7.0e-08 rev/day^2
Epoch rev: 11025
Checksum: 340
Satellite: DO-64
Catalog number: 32789
Epoch time: 10132.80512928
Element set: 679
Inclination: 097.9035 deg
RA of node: 198.5984 deg
Eccentricity: 0.0016476
Arg of perigee: 044.1121 deg
Mean anomaly: 316.1400 deg
Mean motion: 14.82127477 rev/day
Decay rate: 5.65e-06 rev/day^2
Epoch rev: 11026
Checksum: 311
Satellite: CO-66
Catalog number: 32791
Epoch time: 10133.68126741
Element set: 662
Inclination: 097.8975 deg
RA of node: 198.9282 deg
Eccentricity: 0.0017049
Arg of perigee: 039.1207 deg
Mean anomaly: 321.1274 deg
Mean motion: 14.81649527 rev/day
Decay rate: 5.05e-06 rev/day^2
Epoch rev: 11034
Checksum: 314
Satellite: RS-30
Catalog number: 32953
Epoch time: 10133.76031698
Element set: 688
Inclination: 082.5026 deg
RA of node: 051.0840 deg
Eccentricity: 0.0018370
Arg of perigee: 173.3378 deg
Mean anomaly: 186.7948 deg
Mean motion: 12.43005211 rev/day
Decay rate: 1.0e-07 rev/day^2
Epoch rev: 8946
Checksum: 288
Satellite: TACSAT-3
Catalog number: 35001
Epoch time: 10132.93678004
Element set: 0305
Inclination: 040.4570 deg
RA of node: 065.8111 deg
Eccentricity: 0.0019727
Arg of perigee: 101.4328 deg
Mean anomaly: 258.8705 deg
Mean motion: 15.41524656 rev/day
Decay rate: 4.813e-05 rev/day^2
Epoch rev: 05519
Checksum: 270
Satellite: PHARMSAT
Catalog number: 35002
Epoch time: 10132.96765215
Element set: 0274
Inclination: 040.4706 deg
RA of node: 063.7550 deg
Eccentricity: 0.0022979
Arg of perigee: 106.0940 deg
Mean anomaly: 254.2407 deg
Mean motion: 15.42081883 rev/day
Decay rate: 4.460e-05 rev/day^2
Epoch rev: 05521
Checksum: 266
Satellite: HAWKSAT1
Catalog number: 35003
Epoch time: 10132.87962265
Element set: 0291
Inclination: 040.4627 deg
RA of node: 060.0715 deg
Eccentricity: 0.0020780
Arg of perigee: 118.6164 deg
Mean anomaly: 241.6671 deg
Mean motion: 15.44899831 rev/day
Decay rate: 9.596e-05 rev/day^2
Epoch rev: 05525
Checksum: 295
Satellite: CP6
Catalog number: 35004
Epoch time: 10132.89440630
Element set: 0285
Inclination: 040.4678 deg
RA of node: 059.3025 deg
Eccentricity: 0.0019725
Arg of perigee: 123.4708 deg
Mean anomaly: 236.7881 deg
Mean motion: 15.45628069 rev/day
Decay rate: 1.1286e-04 rev/day^2
Epoch rev: 05525
Checksum: 299
Satellite: AEROCUB3
Catalog number: 35005
Epoch time: 10132.92341626
Element set: 0310
Inclination: 040.4745 deg
RA of node: 058.0980 deg
Eccentricity: 0.0016449
Arg of perigee: 134.9228 deg
Mean anomaly: 225.2824 deg
Mean motion: 15.49572420 rev/day
Decay rate: 3.2082e-04 rev/day^2
Epoch rev: 05527
Checksum: 272
Satellite: DRAGNSAT
Catalog number: 35690
Epoch time: 10076.22711312
Element set: 316
Inclination: 051.6170 deg
RA of node: 315.4586 deg
Eccentricity: 0.0004999
Arg of perigee: 310.9891 deg
Mean anomaly: 057.3269 deg
Mean motion: 16.42150010 rev/day
Decay rate: 5.715194e-02 rev/day^2
Epoch rev: 3656
Checksum: 289
Satellite: POLLUX
Catalog number: 35693
Epoch time: 10087.99866888
Element set: 352
Inclination: 051.6099 deg
RA of node: 254.5746 deg
Eccentricity: 0.0006270
Arg of perigee: 294.4866 deg
Mean anomaly: 097.5899 deg
Mean motion: 16.52338462 rev/day
Decay rate: 2.3496735e-01 rev/day^2
Epoch rev: 3839
Checksum: 384
Satellite: CASTOR
Catalog number: 35694
Epoch time: 10133.79239933
Element set: 371
Inclination: 051.6373 deg
RA of node: 023.6464 deg
Eccentricity: 0.0003780
Arg of perigee: 097.4785 deg
Mean anomaly: 262.6653 deg
Mean motion: 15.97564634 rev/day
Decay rate: 6.3345e-04 rev/day^2
Epoch rev: 4555
Checksum: 326
Satellite: METEOR-M
Catalog number: 35865
Epoch time: 10133.65216639
Element set: 290
Inclination: 098.7600 deg
RA of node: 187.6922 deg
Eccentricity: 0.0003357
Arg of perigee: 098.2506 deg
Mean anomaly: 261.9018 deg
Mean motion: 14.21830099 rev/day
Decay rate: 1.76e-06 rev/day^2
Epoch rev: 3381
Checksum: 300
